Regional Weather Roundup
Issued by NWS

Home | Current Version | Previous Version | Graphics & Text | Print | Product List | Glossary On
Versions: 1 2 3 4 5 6 7 8 9 10 11 12 13 14 15 16 17 18 19 20 21 22 23 24 25 26 27 28 29 30 31 32 33 34 35 36 37 38 39 40 41 42 43 44 45 46 47 48 49 50
000
ASUS43 KFSD 221010
RWRSD

WEATHER ROUNDUP FOR SOUTH DAKOTA
NATIONAL WEATHER SERVICE SIOUX FALLS SD
400 AM CST WED NOV 22 2017

NOTE: "FAIR" INDICATES FEW OR NO CLOUDS BELOW 12,000 FEET WITH NO
SIGNIFICANT WEATHER AND/OR OBSTRUCTIONS TO VISIBILITY.


SDZ001>005-009-010-012>017-221100-
NORTHWEST AND NORTH CENTRAL SOUTH DAKOTA

CITY           SKY/WX    TMP DP  RH WIND       PRES   REMARKS
BUFFALO          N/A     25  18  74 SE6       29.96F WCI  18
FAITH            N/A     18  11  74 S18       30.07F WCI   2
MOBRIDGE       CLOUDY    22  14  71 S12       30.14F WCI  10
$$

SDZ012>016-024>037-041>051-057-063-072>074-221100-
SOUTHWEST AND SOUTH CENTRAL SOUTH DAKOTA

CITY           SKY/WX    TMP DP  RH WIND       PRES   REMARKS
RAPID CTY ARPT CLOUDY    28  21  75 CALM      30.07F
PIERRE         CLOUDY    18  12  77 SE8       30.17F WCI   8
CUSTER         CLOUDY    43  19  38 W10       30.09S
ELLSWORTH AFB  CLOUDY    28  22  79 W5        30.05F WCI  23
PHILIP         CLOUDY    20  17  88 CALM      30.13F
PINE RIDGE     CLOUDY    36  28  73 W6        30.12F
SPEARFISH      FAIR      45  25  45 W9        30.05F
WINNER         FAIR      22  14  71 SE8       30.21F WCI  12
$$

SDZ004>011-016>023-039-040-221100-
NORTHEAST SOUTH DAKOTA

CITY           SKY/WX    TMP DP  RH WIND       PRES   REMARKS
ABERDEEN       CLOUDY     4   1  88 S5        30.26F WCI  -5
WATERTOWN      CLOUDY     9   6  88 S6        30.24F WCI  -1
BROOKINGS      CLOUDY    10   7  87 SE7       30.29F WCI  -1
SISSETON         N/A      9   5  84 S8        30.27F WCI  -3
$$

SDZ017-020-022-023-036>040-048>070-221100-
SOUTHEAST SOUTH DAKOTA

CITY           SKY/WX    TMP DP  RH WIND       PRES   REMARKS
SIOUX FALLS    CLOUDY    11   7  84 CALM      30.33F
HURON          CLOUDY    14   8  77 S7        30.29F WCI   4
CHAMBERLAIN    CLOUDY    18  14  86 SE6       30.24F WCI   9
MITCHELL       CLOUDY    14   9  80 S3        30.32F
YANKTON        CLOUDY    13  10  88 CALM      30.34F
$$

ABBREVIATIONS USED IN REMARKS
   TC - TEMPERATURE IN CELSIUS
  WCI - WIND CHILL INDEX
   HX - HEAT INDEX
  VSB - VISIBILITY




USA.gov is the U.S. government's official web portal to all federal, state and local government web resources and services.